Powrót do katalogu

STARLINK-31400

AktywnyŁącznośćVLEO
NORAD 59405·PAYLOAD·🇺🇸 United States

Wystrzelony Apr 5, 2024 z Cape Canaveral Space Force Station

Loading…

Następne Przeloty (najbliższe 24 godziny)

TLE

ŚwieżeSource: CelesTrak SupGP

Epoka: Sep 15, 2026, 02:15 UTC

1 59405C 24064H   26258.09423611 -.00007054  00000+0 -25545-3 0  2587
2 59405  43.0024  66.1928 0001707 274.1023 187.6069 15.27586040    10

Śledź STARLINK-31400 w czasie rzeczywistym z AllMySat

Download on the App Store